Flag for U.S.A. Weather past 2 weeks in Cleveland, Tennessee, U.S.A.

Now
35 °F

Broken clouds.


Feels Like: 35 °F
Forecast: 33 / 48 °F
Wind: No wind

Location: Lovell Field

Current Time: Dec 19, 2014 at 9:27:06 AM

Latest Report: Dec 19, 2014 at 8:53 AM


Visibility: 10 mi

Pressure: 30.22 "Hg

Humidity: 82%

Dew point: 30 °F

Location of ClevelandLocation

Historic Weather in Cleveland — Graph

°F

Cleveland temperature yesterday

Maximum temperature yesterday: 47 °F (at 3:53 PM)
Minimum temperature yesterday: 36 °F (at 12:53 AM)
Average temperature yesterday: 41 °F

Past Weeks' High & Low Weather Summary

 TemperatureHumidityPressure
High64 °F (Dec 4, 2:53 PM)100% (Dec 16, 4:53 AM)30.44 "Hg (Dec 16, 4:53 AM)
Low27 °F (Dec 15, 7:53 AM)30% (Dec 12, 2:53 PM)29.89 "Hg (Dec 16, 4:00 AM)
Average44 °F73%30.22 "Hg
* Reported Dec 4 7:53 AM — Dec 19 7:53 AM, Cleveland, Weather by CustomWeather, © 2014

Note: Actual official high and low records may vary slightly from our data, if they occured in-between our weather recording intervals... More about our weather records

Advertising

Cleveland weather history for previous 24 hours

 ConditionsComfort  
Time TempWeatherWind HumidityBarometerVisibility
7:53 AM
Dec 19
31 °FBroken clouds.No wind89%30.23 "Hg10 mi
6:53 AM33 °FPassing clouds.No wind85%30.22 "Hg10 mi
5:53 AM33 °FPassing clouds.No wind88%30.20 "Hg10 mi
4:53 AM33 °FClear.No wind88%30.19 "Hg10 mi
3:53 AM34 °FClear.No wind88%30.19 "Hg10 mi
2:53 AM36 °FClear.No wind85%30.19 "Hg10 mi
1:53 AM35 °FClear.No wind88%30.19 "Hg10 mi
12:53 AM38 °FClear.No wind86%30.19 "Hg10 mi
11:53 PM
Dec 18
41 °FPassing clouds.No wind80%30.19 "Hg10 mi
10:53 PM45 °FPassing clouds.No wind71%30.20 "Hg10 mi
9:53 PM45 °FOvercast.5 mph71%30.19 "Hg10 mi
8:53 PM45 °FOvercast.6 mph71%30.19 "Hg10 mi
7:53 PM45 °FOvercast.6 mph68%30.19 "Hg10 mi
6:53 PM45 °FOvercast.3 mph65%30.17 "Hg10 mi
5:53 PM46 °FOvercast.3 mph63%30.16 "Hg10 mi
4:53 PM47 °FMostly cloudy.3 mph61%30.16 "Hg10 mi
3:53 PM47 °FOvercast.No wind59%30.16 "Hg10 mi
2:53 PM46 °FPartly sunny.3 mph61%30.15 "Hg10 mi
1:53 PM45 °FPartly sunny.No wind65%30.16 "Hg10 mi
12:53 PM43 °FPartly sunny.No wind65%30.19 "Hg10 mi
11:53 AM42 °FBroken clouds.No wind71%30.22 "Hg10 mi
10:53 AM40 °FBroken clouds.5 mph73%30.24 "Hg10 mi
9:53 AM39 °FBroken clouds.6 mph76%30.23 "Hg10 mi
Weather by CustomWeather, © 2014

See weather overviewHow to use our weather pages